Weather History for Crestview, FL

Change the Weather History Date:

Tuesday, September 17, 2013

  Actual Average Record
Temperature  
Mean Temperature 82 °F -  
Max Temperature 96 °F 89 °F 97 °F (1991)
Min Temperature 70 °F 66 °F 52 °F (1999)
Cooling Degree Days 18    
Growing Degree Days 32 (Base 50)    
Moisture  
Dew Point 72 °F    
Average Humidity 83    
Maximum Humidity 100    
Minimum Humidity 44    
Precipitation  
Precipitation 1.34 in - - ()
Sea Level Pressure  
Sea Level Pressure 30.06 in    
Wind  
Wind Speed 3 mph (ENE)    
Max Wind Speed 12 mph    
Max Gust Speed 17 mph    
Visibility 6 miles    
Events Rain , Thunderstorm    
Averages and records for this station are not official NWS values.
T = Trace of Precipitation, MM = Missing Value Source: NWS Daily Summary

Daily Weather History Graph

Daily Weather History Graph

Search for Another Location

Airport:

Trip Planner

Search our weather history database for the weather conditions in past years. The results will help you decide how hot, cold, wet, or windy it might be!

Date:

Astronomy

Sep. 17, 2013 Rise Set
Actual Time 6:31 AM CDT 6:48 PM CDT
Civil Twilight 6:07 AM CDT 7:12 PM CDT
Nautical Twilight 5:39 AM CDT 7:41 PM CDT
Astronomical Twilight 5:10 AM CDT 8:09 PM CDT
Moon 5:32 PM CDT 4:31 AM CDT
Length of Visible Light 13h 05m
Length of Day
12h 17m
Waxing Gibbous, 96% of the Moon is Illuminated
Sep 17
Waxing Gibbous
Sep 19
Full
Sep 26
Last Quarter
Oct 4
New
Oct 11
First Quarter

Hourly Weather History & Observations

Time (CDT) Temp. Heat Index Dew Point Humidity Pressure Visibility Wind Dir Wind Speed Gust Speed Precip Events Conditions
12:53 AM 73.9 °F - 71.1 °F 91% 30.05 in 10.0 mi Calm Calm - N/A   Partly Cloudy
1:53 AM 73.0 °F - 70.0 °F 90% 30.05 in 10.0 mi Calm Calm - N/A   Clear
2:53 AM 72.0 °F - 69.1 °F 91% 30.04 in 10.0 mi Calm Calm - N/A   Clear
3:53 AM 71.1 °F - 69.1 °F 93% 30.04 in 7.0 mi Calm Calm - N/A   Clear
4:53 AM 71.1 °F - 69.1 °F 93% 30.03 in 7.0 mi Calm Calm - N/A   Clear
5:53 AM 70.0 °F - 68.0 °F 93% 30.06 in 6.0 mi Calm Calm - N/A   Clear
6:53 AM 71.1 °F - 68.0 °F 90% 30.06 in 4.0 mi Calm Calm - N/A   Clear
7:53 AM 75.9 °F - 71.1 °F 85% 30.08 in 7.0 mi ENE 4.6 mph - N/A   Clear
8:53 AM 82.0 °F 86.7 °F 72.0 °F 71% 30.08 in 10.0 mi ENE 4.6 mph - N/A   Clear
9:53 AM 86.0 °F 92.2 °F 72.0 °F 63% 30.09 in 10.0 mi ENE 5.8 mph - N/A   Clear
10:53 AM 89.1 °F 96.0 °F 72.0 °F 57% 30.09 in 10.0 mi NNE 6.9 mph - N/A   Clear
11:53 AM 91.9 °F 99.5 °F 72.0 °F 52% 30.08 in 10.0 mi Variable 4.6 mph - N/A   Clear
12:53 PM 93.9 °F 100.8 °F 71.1 °F 47% 30.06 in 10.0 mi Variable 6.9 mph - N/A   Scattered Clouds
1:53 PM 93.0 °F 100.1 °F 71.1 °F 49% 30.03 in 10.0 mi ENE 5.8 mph - N/A   Partly Cloudy
2:53 PM 95.0 °F 101.3 °F 70.0 °F 44% 30.00 in 10.0 mi ENE 8.1 mph - N/A   Partly Cloudy
3:53 PM 90.0 °F 96.9 °F 72.0 °F 55% 29.99 in 10.0 mi South 8.1 mph - N/A   Scattered Clouds
4:16 PM 87.8 °F 93.8 °F 71.6 °F 58% 30.01 in 10.0 mi East 8.1 mph 17.3 mph N/A Thunderstorm Scattered Clouds
4:28 PM 80.6 °F 85.4 °F 73.4 °F 79% 30.01 in 2.5 mi ENE 4.6 mph - 0.04 in Rain Heavy Rain
4:45 PM 80.6 °F 86.2 °F 75.2 °F 84% 30.01 in 6.0 mi WNW 3.5 mph - 0.06 in Rain Light Rain
4:53 PM 82.0 °F 88.6 °F 75.0 °F 79% 30.00 in 10.0 mi West 3.5 mph - 0.06 in Rain Light Rain
5:53 PM 82.9 °F 91.8 °F 77.0 °F 82% 30.00 in 10.0 mi East 9.2 mph - 0.00 in   Scattered Clouds
6:18 PM 82.4 °F 89.5 °F 75.2 °F 79% 30.01 in 10.0 mi NNE 4.6 mph - N/A Thunderstorm Scattered Clouds
6:53 PM 79.0 °F - 72.0 °F 79% 30.01 in 10.0 mi NE 3.5 mph - N/A Thunderstorm Scattered Clouds
7:53 PM 77.0 °F - 73.0 °F 88% 30.05 in 10.0 mi SE 4.6 mph - N/A Thunderstorm Mostly Cloudy
8:01 PM 75.2 °F - 73.4 °F 94% 30.06 in 2.5 mi ESE 9.2 mph - 0.06 in Rain Heavy Rain
8:07 PM 73.4 °F - 71.6 °F 94% 30.06 in 0.8 mi South 6.9 mph - 0.21 in Rain Heavy Rain
8:11 PM 73.4 °F - 71.6 °F 94% 30.05 in 1.0 mi South 8.1 mph - 0.24 in Rain , Thunderstorm Heavy Thunderstorms and Rain
8:17 PM 75.2 °F - 73.4 °F 94% 30.06 in 3.0 mi SSE 5.8 mph - 0.24 in Rain , Thunderstorm Thunderstorms and Rain
8:53 PM 75.0 °F - 72.0 °F 90% 30.06 in 10.0 mi Calm Calm - 0.25 in Rain , Thunderstorm Light Rain
9:00 PM 75.2 °F - 71.6 °F 89% 30.07 in 8.0 mi Calm Calm - 0.00 in Rain Light Rain
9:53 PM 75.0 °F - 72.0 °F 90% 30.07 in 10.0 mi Calm Calm - 0.01 in   Overcast
10:24 PM 75.2 °F - 73.4 °F 94% 30.09 in 1.8 mi Calm Calm - 0.06 in Rain Heavy Rain
10:33 PM 73.4 °F - 73.4 °F 100% 30.09 in 0.8 mi North 3.5 mph - 0.22 in Rain Heavy Rain
10:38 PM 73.4 °F - 73.4 °F 100% 30.10 in 1.0 mi NNE 3.5 mph - 0.26 in Rain Heavy Rain
10:46 PM 73.4 °F - 71.6 °F 94% 30.10 in 1.0 mi North 6.9 mph - 0.41 in Rain , Thunderstorm Heavy Rain
10:53 PM 73.9 °F - 73.0 °F 97% 30.10 in 1.0 mi NNE 11.5 mph - 0.52 in Rain , Thunderstorm Heavy Thunderstorms and Rain
11:11 PM 73.4 °F - 71.6 °F 94% 30.10 in 1.8 mi ENE 5.8 mph - 0.21 in Rain , Thunderstorm Heavy Thunderstorms and Rain
11:19 PM 73.4 °F - 71.6 °F 94% 30.10 in 2.5 mi East 4.6 mph - 0.25 in Rain , Thunderstorm Heavy Thunderstorms and Rain
11:31 PM 73.4 °F - 71.6 °F 94% 30.11 in 1.0 mi Variable 4.6 mph - 0.40 in Rain , Thunderstorm Heavy Thunderstorms and Rain
11:43 PM 73.4 °F - 71.6 °F 94% 30.10 in 1.8 mi East 3.5 mph - 0.49 in Rain , Thunderstorm Heavy Thunderstorms and Rain
11:48 PM 73.4 °F - 71.6 °F 94% 30.10 in 3.0 mi Calm Calm - 0.50 in Rain , Thunderstorm Thunderstorms and Rain
11:53 PM 73.9 °F - 72.0 °F 93% 30.08 in 4.0 mi North 4.6 mph - 0.50 in Rain , Thunderstorm Light Thunderstorms and Rain